When you browse on this site, cookies collect data to enhance your experience and personalize the content and advertising you see.
Visit our Privacy Policy to learn more. By continuing to use the site, you agree to this use of cookies and data.

Hourly Weather Bekescsaba

Today, 13 August, Thursday

Time Temperature Precipitation Wind Pressure Humidity
00:00 +20°C° 0 mm 3 mps 755 mmHg 68%
01:00 +19°C° 0 mm 2 mps 755 mmHg 72%
02:00 +19°C° 0 mm 2 mps 755 mmHg 74%
03:00 +18°C° 0 mm 2 mps 755 mmHg 75%
04:00 +18°C° 0 mm 2 mps 755 mmHg 77%
05:00 +19°C° 0 mm 2 mps 755 mmHg 73%
06:00 +20°C° 0 mm 2 mps 755 mmHg 70%
07:00 +21°C° 0 mm 2 mps 755 mmHg 67%
08:00 +24°C° 0 mm 2 mps 755 mmHg 59%
09:00 +26°C° 0 mm 2 mps 755 mmHg 51%
10:00 +28°C° 0 mm 2 mps 755 mmHg 43%
11:00 +29°C° 0 mm 2 mps 755 mmHg 41%
12:00 +30°C° 0 mm 2 mps 754 mmHg 40%
13:00 +31°C° 0 mm 2 mps 754 mmHg 38%
14:00 +32°C° 0 mm 1 mps 754 mmHg 37%
15:00 +32°C° 0 mm 1 mps 753 mmHg 37%
16:00 +32°C° 0 mm 1 mps 753 mmHg 36%
17:00 +30°C° 0 mm 1 mps 753 mmHg 41%
18:00 +28°C° 0 mm 1 mps 753 mmHg 46%
19:00 +26°C° 0 mm 1 mps 753 mmHg 51%
20:00 +25°C° 0 mm 1 mps 753 mmHg 52%
21:00 +24°C° 0 mm 2 mps 753 mmHg 53%
22:00 +24°C° 0 mm 2 mps 753 mmHg 54%
23:00 +23°C° 0 mm 2 mps 753 mmHg 53%

Tomorrow, 14 August, Friday

Time Temperature Precipitation Wind Pressure Humidity
00:00 +23°C° 0 mm 2 mps 753 mmHg 53%
01:00 +21°C° 0 mm 2 mps 753 mmHg 52%
02:00 +21°C° 0 mm 2 mps 753 mmHg 52%
03:00 +21°C° 0 mm 2 mps 752 mmHg 52%
04:00 +20°C° 0 mm 2 mps 752 mmHg 52%
05:00 +21°C° 0 mm 2 mps 752 mmHg 52%
06:00 +23°C° 0 mm 1 mps 752 mmHg 53%
07:00 +24°C° 0 mm 1 mps 752 mmHg 53%
08:00 +26°C° 0 mm 1 mps 752 mmHg 50%
09:00 +27°C° 0 mm 1 mps 752 mmHg 47%
10:00 +29°C° 0 mm 1 mps 752 mmHg 45%
11:00 +30°C° 0 mm 1 mps 752 mmHg 43%
12:00 +31°C° 0 mm 1 mps 752 mmHg 42%
13:00 +31°C° 0 mm 1 mps 751 mmHg 40%
14:00 +32°C° 0 mm 1 mps 751 mmHg 39%
15:00 +32°C° 0 mm 1 mps 751 mmHg 39%
16:00 +32°C° 0 mm 1 mps 751 mmHg 38%
17:00 +30°C° 0 mm 1 mps 750 mmHg 42%
18:00 +29°C° 0 mm 2 mps 750 mmHg 46%
19:00 +27°C° 0 mm 2 mps 750 mmHg 50%
20:00 +26°C° 0 mm 2 mps 751 mmHg 52%
21:00 +25°C° 0 mm 2 mps 751 mmHg 55%
22:00 +25°C° 0 mm 2 mps 751 mmHg 57%
23:00 +24°C° 0 mm 2 mps 751 mmHg 60%

Day after tomorrow, 15 August, Saturday

Time Temperature Precipitation Wind Pressure Humidity
00:00 +23°C° 0 mm 2 mps 751 mmHg 62%
01:00 +23°C° 0 mm 1 mps 751 mmHg 64%
02:00 +21°C° 0 mm 2 mps 750 mmHg 67%
03:00 +21°C° 0 mm 2 mps 750 mmHg 69%
04:00 +20°C° 0 mm 2 mps 750 mmHg 71%
05:00 +21°C° 0.1 mm 2 mps 750 mmHg 72%
06:00 +22°C° 0.1 mm 3 mps 751 mmHg 74%
07:00 +22°C° 0.1 mm 3 mps 751 mmHg 76%
08:00 +25°C° 0 mm 3 mps 751 mmHg 72%
09:00 +26°C° 0 mm 3 mps 751 mmHg 68%
10:00 +28°C° 0 mm 3 mps 751 mmHg 64%
11:00 +28°C° 0 mm 3 mps 751 mmHg 61%
12:00 +29°C° 0 mm 2 mps 751 mmHg 57%
13:00 +30°C° 0 mm 2 mps 750 mmHg 54%
14:00 +30°C° 0.1 mm 2 mps 750 mmHg 53%
15:00 +30°C° 0.1 mm 2 mps 750 mmHg 53%
16:00 +31°C° 0.1 mm 1 mps 750 mmHg 52%
17:00 +29°C° 0.3 mm 2 mps 750 mmHg 58%
18:00 +27°C° 0.3 mm 2 mps 749 mmHg 63%
19:00 +26°C° 0.3 mm 2 mps 749 mmHg 68%
20:00 +25°C° 0.5 mm 2 mps 749 mmHg 75%
21:00 +23°C° 0.5 mm 2 mps 750 mmHg 81%
22:00 +21°C° 0.5 mm 2 mps 750 mmHg 88%
23:00 +21°C° 0.1 mm 2 mps 750 mmHg 89%

16 August, Sunday

Time Temperature Precipitation Wind Pressure Humidity
00:00 +20°C° 0.1 mm 2 mps 750 mmHg 91%
01:00 +21°C° 0.1 mm 1 mps 750 mmHg 92%
02:00 +21°C° 0.1 mm 1 mps 750 mmHg 92%
03:00 +21°C° 0.1 mm 1 mps 750 mmHg 92%
04:00 +21°C° 0.1 mm 1 mps 750 mmHg 92%
05:00 +21°C° 0 mm 1 mps 750 mmHg 89%
06:00 +22°C° 0 mm 1 mps 750 mmHg 85%
07:00 +23°C° 0 mm 2 mps 750 mmHg 81%
08:00 +24°C° 0.4 mm 2 mps 751 mmHg 76%
09:00 +26°C° 0.4 mm 1 mps 751 mmHg 70%
10:00 +27°C° 0.4 mm 1 mps 751 mmHg 64%
11:00 +28°C° 1.4 mm 1 mps 751 mmHg 60%
12:00 +29°C° 1.4 mm 1 mps 751 mmHg 57%
13:00 +30°C° 1.4 mm 1 mps 751 mmHg 53%
14:00 +30°C° 0.5 mm 1 mps 751 mmHg 52%
15:00 +30°C° 0.5 mm 1 mps 751 mmHg 52%
16:00 +30°C° 0.5 mm 1 mps 750 mmHg 51%
17:00 +29°C° 0.1 mm 1 mps 751 mmHg 57%
18:00 +27°C° 0.1 mm 1 mps 751 mmHg 63%
19:00 +26°C° 0.1 mm 2 mps 751 mmHg 68%
20:00 +25°C° 0 mm 2 mps 751 mmHg 71%
21:00 +24°C° 0 mm 2 mps 751 mmHg 74%
22:00 +24°C° 0 mm 2 mps 752 mmHg 77%
23:00 +23°C° 0 mm 2 mps 751 mmHg 79%

17 August, Monday

Time Temperature Precipitation Wind Pressure Humidity
00:00 +23°C° 0 mm 2 mps 751 mmHg 80%
01:00 +21°C° 0 mm 2 mps 751 mmHg 81%
02:00 +21°C° 0 mm 2 mps 751 mmHg 82%
03:00 +21°C° 0 mm 2 mps 751 mmHg 82%
04:00 +20°C° 0 mm 3 mps 751 mmHg 83%
05:00 +21°C° 0 mm 3 mps 751 mmHg 79%
06:00 +22°C° 0 mm 3 mps 752 mmHg 75%
07:00 +23°C° 0 mm 4 mps 752 mmHg 71%
08:00 +26°C° 0 mm 4 mps 752 mmHg 65%
09:00 +28°C° 0 mm 4 mps 752 mmHg 59%
10:00 +29°C° 0 mm 4 mps 752 mmHg 54%
11:00 +30°C° 0 mm 4 mps 751 mmHg 51%
12:00 +32°C° 0 mm 4 mps 751 mmHg 48%
13:00 +33°C° 0 mm 4 mps 751 mmHg 45%
14:00 +33°C° 0 mm 3 mps 750 mmHg 45%
15:00 +33°C° 0 mm 3 mps 750 mmHg 45%
16:00 +33°C° 0 mm 3 mps 749 mmHg 44%
17:00 +30°C° 0 mm 3 mps 749 mmHg 49%
18:00 +29°C° 0 mm 3 mps 749 mmHg 54%
19:00 +27°C° 0 mm 3 mps 749 mmHg 59%
20:00 +26°C° 0 mm 3 mps 749 mmHg 61%
21:00 +26°C° 0 mm 3 mps 749 mmHg 62%
22:00 +25°C° 0 mm 3 mps 749 mmHg 63%
23:00 +24°C° 0 mm 3 mps 749 mmHg 64%

18 August, Tuesday

Time Temperature Precipitation Wind Pressure Humidity
00:00 +24°C° 0 mm 3 mps 749 mmHg 65%
01:00 +22°C° 0 mm 3 mps 748 mmHg 67%
02:00 +22°C° 0.3 mm 3 mps 748 mmHg 69%
03:00 +22°C° 0.3 mm 3 mps 748 mmHg 71%
04:00 +21°C° 0.3 mm 2 mps 748 mmHg 73%
05:00 +22°C° 0.7 mm 3 mps 748 mmHg 72%
06:00 +24°C° 0.7 mm 3 mps 748 mmHg 71%
07:00 +24°C° 0.7 mm 3 mps 748 mmHg 70%
08:00 +26°C° 0.3 mm 3 mps 748 mmHg 65%
09:00 +28°C° 0.3 mm 3 mps 748 mmHg 60%
10:00 +30°C° 0.3 mm 3 mps 748 mmHg 54%
11:00 +31°C° 0 mm 3 mps 747 mmHg 51%
12:00 +31°C° 0 mm 3 mps 747 mmHg 48%
13:00 +33°C° 0 mm 3 mps 747 mmHg 45%
14:00 +33°C° 0 mm 3 mps 746 mmHg 46%
15:00 +33°C° 0 mm 3 mps 746 mmHg 47%
16:00 +33°C° 0 mm 3 mps 746 mmHg 47%
17:00 +30°C° 0.1 mm 3 mps 746 mmHg 54%
18:00 +28°C° 0.1 mm 3 mps 746 mmHg 61%
19:00 +26°C° 0.1 mm 3 mps 746 mmHg 67%
20:00 +25°C° 1.1 mm 3 mps 747 mmHg 74%
21:00 +24°C° 1.1 mm 3 mps 747 mmHg 80%
22:00 +21°C° 1.1 mm 3 mps 747 mmHg 87%
23:00 +21°C° 0.1 mm 3 mps 747 mmHg 87%
Show more